Tracking 28052 objects as of 23-Sep-2023
HD Live streaming from Space Station
objects crossing your sky now

SL-8 DEB

Track SL-8 DEB now!
10-day predictions


NORAD ID: 39699
Int'l Code: 1991-009DN
Perigee: 1,497.9 km
Apogee: 1,727.0 km
Inclination: 74.1 °
Period: 118.3 minutes
Semi major axis: 7983 km
RCS: 0.0155 m2 (small)
Launch date: February 12, 1991
Source: Commonwealth of Independent States (former USSR) (CIS)
Launch site: PLESETSK MISSILE AND SPACE COMPLEX (PKMTR)

Note: This is SATELLITE DEBRIS
Your satellite tracking list
Your tracking list is empty




NASA's NSSDC Master Catalog

Two Line Element Set (TLE):
1 39699U 91009DN  23266.14112839  .00000266  00000-0  27318-2 0  9990
2 39699  74.0986 158.8867 0143431 324.1977  34.9505 12.17072938908760
Source of the keplerian elements: AFSPC